Weather History for Gainesville, GA

Change the Weather History Date:

Friday, August 23, 2013

  Actual Average Record
Temperature  
Mean Temperature 78 °F 78 °F  
Max Temperature 89 °F 87 °F 100 °F (1983)
Min Temperature 66 °F 69 °F 53 °F (1930)
Cooling Degree Days 13 13  
Month to date cooling degree days 243 311  
Year to date cooling degree days 1062 1233  
Since 1 June cooling degree days 917 1058  
Growing Degree Days 26 (Base 50)    
Moisture  
Dew Point 67 °F    
Average Humidity 70    
Maximum Humidity 97    
Minimum Humidity 43    
Precipitation  
Precipitation 0.01 in 0.11 in 3.05 in (1969)
Month to date precipitation 7.11 3.47  
Year to date precipitation 40.21 35.29  
Sea Level Pressure  
Sea Level Pressure 30.07 in    
Wind  
Wind Speed 4 mph (NW)    
Max Wind Speed 20 mph    
Max Gust Speed 28 mph    
Visibility 9 miles    
Events Fog , Thunderstorm    
T = Trace of Precipitation, MM = Missing Value Source: NWS Daily Summary

Daily Weather History Graph

Daily Weather History Graph

Search for Another Location

Airport:

Trip Planner

Search our weather history database for the weather conditions in past years. The results will help you decide how hot, cold, wet, or windy it might be!

Date:

Astronomy

Aug. 23, 2013 Rise Set
Actual Time 7:02 AM EDT 8:12 PM EDT
Civil Twilight 6:36 AM EDT 8:38 PM EDT
Nautical Twilight 6:05 AM EDT 9:09 PM EDT
Astronomical Twilight 5:33 AM EDT 9:41 PM EDT
Moon 9:42 PM EDT (8/23) 9:46 AM EDT (8/23)
Length of Visible Light 14h 02m
Length of Day
13h 10m
Waning Gibbous, 91% of the Moon is Illuminated
Aug 23
Waning Gibbous
Aug 28
Last Quarter
Sep 5
New
Sep 12
First Quarter
Sep 19
Full

Hourly Weather History & Observations

Time (EDT) Temp. Heat Index Dew Point Humidity Pressure Visibility Wind Dir Wind Speed Gust Speed Precip Events Conditions
12:53 AM 70.0 °F - 68.0 °F 93% 30.08 in 10.0 mi NNW 3.5 mph - N/A   Clear
1:53 AM 70.0 °F - 66.9 °F 90% 30.06 in 10.0 mi Calm Calm - N/A   Clear
2:53 AM 69.1 °F - 66.9 °F 93% 30.06 in 10.0 mi Calm Calm - N/A   Clear
3:53 AM 69.1 °F - 66.9 °F 93% 30.04 in 10.0 mi Calm Calm - N/A   Clear
4:53 AM 68.0 °F - 66.0 °F 93% 30.04 in 10.0 mi West 3.5 mph - N/A   Clear
5:05 AM 66.2 °F - 66.2 °F 100% 30.08 in 10.0 mi Calm Calm - N/A   Scattered Clouds
5:13 AM 68.0 °F - 66.2 °F 94% 30.08 in 2.0 mi Calm Calm - N/A   Mostly Cloudy
5:15 AM 68.0 °F - 66.2 °F 94% 30.08 in 1.0 mi Calm Calm - N/A   Mist
5:22 AM 68.0 °F - 66.2 °F 94% 30.08 in 0.2 mi Calm Calm - N/A Fog Fog
5:34 AM 68.0 °F - 66.2 °F 94% 30.07 in 1.2 mi Calm Calm - N/A   Mostly Cloudy
5:37 AM 68.0 °F - 66.2 °F 94% 30.08 in 2.0 mi West 3.5 mph - N/A   Mostly Cloudy
5:39 AM 68.0 °F - 66.2 °F 94% 30.08 in 3.0 mi West 3.5 mph - N/A   Scattered Clouds
5:53 AM 66.9 °F - 64.9 °F 93% 30.04 in 10.0 mi West 4.6 mph - N/A   Clear
6:53 AM 68.0 °F - 66.0 °F 93% 30.06 in 10.0 mi West 4.6 mph - N/A   Clear
7:53 AM 68.0 °F - 66.0 °F 93% 30.08 in 10.0 mi West 3.5 mph - N/A   Clear
8:53 AM 71.1 °F - 68.0 °F 90% 30.09 in 10.0 mi WNW 3.5 mph - N/A   Clear
9:53 AM 75.9 °F - 69.1 °F 79% 30.09 in 10.0 mi West 5.8 mph - N/A   Partly Cloudy
10:53 AM 78.1 °F - 68.0 °F 71% 30.10 in 10.0 mi WNW 8.1 mph - 0.01 in   Clear
11:53 AM 81.0 °F 83.8 °F 68.0 °F 65% 30.09 in 10.0 mi WNW 5.8 mph - N/A   Clear
12:53 PM 84.0 °F 87.8 °F 69.1 °F 61% 30.07 in 10.0 mi North 9.2 mph - N/A   Clear
1:53 PM 84.9 °F 88.2 °F 68.0 °F 57% 30.05 in 10.0 mi NNW 8.1 mph - N/A   Partly Cloudy
2:53 PM 87.1 °F 90.6 °F 68.0 °F 53% 30.03 in 10.0 mi NW 6.9 mph - N/A   Partly Cloudy
3:53 PM 87.1 °F 88.9 °F 64.9 °F 48% 30.00 in 10.0 mi NW 3.5 mph - N/A   Clear
4:53 PM 87.1 °F 87.8 °F 63.0 °F 44% 29.99 in 10.0 mi NNW 3.5 mph - N/A   Partly Cloudy
5:53 PM 86.0 °F 87.3 °F 64.0 °F 48% 30.00 in 10.0 mi Calm Calm - N/A   Clear
6:53 PM 84.9 °F 86.6 °F 64.9 °F 51% 30.01 in 10.0 mi WNW 3.5 mph - N/A   Clear
7:53 PM 80.1 °F 82.9 °F 69.1 °F 69% 30.00 in 10.0 mi WSW 4.6 mph - N/A   Clear
8:53 PM 79.0 °F - 69.1 °F 72% 30.03 in 10.0 mi Calm Calm - N/A   Clear
9:53 PM 77.0 °F - 70.0 °F 79% 30.04 in 10.0 mi WSW 3.5 mph - N/A   Mostly Cloudy
10:29 PM 73.4 °F - 66.2 °F 78% 30.12 in 10.0 mi ENE 16.1 mph 25.3 mph N/A Thunderstorm Mostly Cloudy
10:38 PM 73.4 °F - 66.2 °F 78% 30.13 in 10.0 mi ENE 15.0 mph 24.2 mph N/A   Mostly Cloudy
10:49 PM 71.6 °F - 66.2 °F 83% 30.14 in 10.0 mi East 16.1 mph 27.6 mph N/A   Scattered Clouds
10:53 PM 72.0 °F - 66.9 °F 84% 30.10 in 10.0 mi East 16.1 mph 25.3 mph N/A   Scattered Clouds
11:07 PM 71.6 °F - 66.2 °F 83% 30.14 in 10.0 mi East 11.5 mph 24.2 mph N/A   Scattered Clouds
11:21 PM 71.6 °F - 66.2 °F 83% 30.13 in 10.0 mi ESE 8.1 mph - N/A Thunderstorm Mostly Cloudy
11:36 PM 71.6 °F - 62.6 °F 73% 30.13 in 10.0 mi SE 9.2 mph - N/A   Mostly Cloudy
11:53 PM 71.1 °F - 63.0 °F 75% 30.07 in 10.0 mi Calm Calm - N/A   Scattered Clouds